IGO951H VIAR-VISR

Flight info

Callsign IGO951H
Flight time N/A
Altitude 33000
Route RABAN DCT SULOM DCT ANPOL DCT KIKED DCT PK/N0464F320 DCT ATNUS DCT MESAR
Aircraft A20N/M-SDE2E3FGHIRWXY/LB1

Departure

Time N/A
Airport Sri Guru Ram Das Ji International Airport (VIAR)

Arrival

Time 2026-04-30 09:51
Airport Sheikh ul Alam International Airport (VISR)
Time Latitude Longitude Altitude Speed Heading
2026-04-30 09:39 33.07986 75.36210 25188 ft 464 kts 343°
2026-04-30 09:39 33.11063 75.35216 24540 ft 461 kts 344°
2026-04-30 09:39 33.14144 75.34225 23910 ft 457 kts 344°
2026-04-30 09:39 33.17168 75.33256 23247 ft 453 kts 344°
2026-04-30 09:40 33.20198 75.32288 22529 ft 448 kts 344°
2026-04-30 09:40 33.23228 75.31321 21841 ft 443 kts 344°
2026-04-30 09:40 33.26156 75.30387 21193 ft 438 kts 344°
2026-04-30 09:40 33.29084 75.29453 20494 ft 434 kts 344°
2026-04-30 09:41 33.31989 75.28525 19828 ft 430 kts 344°
2026-04-30 09:41 33.34854 75.27609 19188 ft 425 kts 344°
2026-04-30 09:41 33.36752 75.27002 18757 ft 422 kts 344°
2026-04-30 09:41 33.39577 75.26097 18096 ft 418 kts 343°
2026-04-30 09:42 33.42375 75.25201 17370 ft 414 kts 344°
2026-04-30 09:42 33.45134 75.24317 16661 ft 410 kts 344°
2026-04-30 09:42 33.47898 75.23392 15952 ft 406 kts 341°
2026-04-30 09:42 33.50481 75.22056 15270 ft 402 kts 329°
2026-04-30 09:43 33.52813 75.20257 14592 ft 398 kts 324°
2026-04-30 09:43 33.55036 75.18300 13903 ft 395 kts 322°
2026-04-30 09:43 33.57215 75.16296 13165 ft 392 kts 322°
2026-04-30 09:43 33.59358 75.14298 12489 ft 387 kts 321°
2026-04-30 09:44 33.61404 75.12385 12148 ft 367 kts 321°
2026-04-30 09:44 33.63364 75.10559 11838 ft 345 kts 321°
2026-04-30 09:44 33.65209 75.08843 11546 ft 326 kts 321°
2026-04-30 09:44 33.66960 75.07219 11232 ft 310 kts 321°
2026-04-30 09:45 33.68648 75.05651 10833 ft 305 kts 321°
2026-04-30 09:45 33.70317 75.04098 10467 ft 301 kts 321°
2026-04-30 09:45 33.71963 75.02563 10099 ft 299 kts 321°
2026-04-30 09:45 33.73604 75.01028 9696 ft 297 kts 321°
2026-04-30 09:46 33.75228 74.99507 9274 ft 295 kts 321°
2026-04-30 09:46 33.76823 74.98012 8865 ft 293 kts 321°
2026-04-30 09:46 33.78420 74.96514 8462 ft 290 kts 321°
2026-04-30 09:46 33.80007 74.95033 8145 ft 287 kts 323°
2026-04-30 09:47 33.81762 74.94061 8093 ft 271 kts 345°
2026-04-30 09:47 33.83480 74.93327 8092 ft 254 kts 333°
2026-04-30 09:47 33.84971 74.92295 8092 ft 242 kts 326°
2026-04-30 09:47 33.86337 74.91139 8006 ft 240 kts 322°
2026-04-30 09:48 33.87655 74.90001 8009 ft 225 kts 324°
2026-04-30 09:48 33.88826 74.88838 7980 ft 213 kts 315°
2026-04-30 09:48 33.89854 74.87642 7701 ft 204 kts 316°
2026-04-30 09:48 33.90862 74.86491 7402 ft 192 kts 316°
2026-04-30 09:49 33.91785 74.85428 7111 ft 176 kts 316°
2026-04-30 09:49 33.92627 74.84454 6896 ft 160 kts 316°
2026-04-30 09:49 33.93385 74.83575 6730 ft 147 kts 316°
2026-04-30 09:49 33.94110 74.82734 6586 ft 144 kts 316°
2026-04-30 09:50 33.94833 74.81893 6411 ft 145 kts 316°
2026-04-30 09:50 33.95560 74.81049 6179 ft 145 kts 316°
2026-04-30 09:50 33.96289 74.80228 5951 ft 143 kts 316°
2026-04-30 09:50 33.96990 74.79391 5667 ft 140 kts 315°
2026-04-30 09:51 33.97678 74.78578 5497 ft 137 kts 315°
2026-04-30 09:51 33.98323 74.77822 5463 ft 110 kts 317°
2026-04-30 09:51 33.98672 74.77428 5466 ft 39 kts 316°
2026-04-30 09:51 33.98862 74.77210 5465 ft 37 kts 316°
2026-04-30 09:52 33.99047 74.77000 5465 ft 36 kts 317°
2026-04-30 09:52 33.99225 74.76799 5464 ft 34 kts 315°
2026-04-30 09:52 33.99386 74.76605 5465 ft 30 kts 315°
2026-04-30 09:52 33.99527 74.76437 5466 ft 28 kts 316°
2026-04-30 09:53 33.99662 74.76281 5466 ft 26 kts 316°
2026-04-30 09:53 33.99792 74.76133 5463 ft 25 kts 317°
2026-04-30 09:53 33.99886 74.76054 5464 ft 11 kts 355°
2026-04-30 09:53 33.99942 74.76057 5464 ft 5 kts
2026-04-30 09:54 33.99976 74.76061 5465 ft 4 kts
2026-04-30 09:54 33.99987 74.76062 5465 ft 0 kts
2026-04-30 09:54 33.99991 74.76063 5465 ft 3 kts
2026-04-30 09:54 34.00029 74.76080 5465 ft 8 kts 32°
2026-04-30 09:55 34.00067 74.76110 5465 ft 8 kts 34°
2026-04-30 09:55 34.00118 74.76151 5465 ft 4 kts 34°
2026-04-30 09:55 34.00119 74.76152 5465 ft 0 kts 34°